H1 CPF 2 NER 2022 11 10 9 314 01 glonass142 H2 2001801 9142 45358 2022 11 10 0 0 0 2022 11 13 23 45 0 900 1 1 0 0 0 1 H9 10 0 59893 0.00000 0 9645184.078 5251715.250 23045571.119 10 0 59893 900.00000 0 7923317.193 7511502.970 23074368.135 10 0 59893 1800.00000 0 6385485.825 9872107.238 22656064.542 10 0 59893 2700.00000 0 5064057.143 12271519.167 21798660.858 10 0 59893 3600.00000 0 3979717.000 14643622.831 20518652.332 10 0 59893 4500.00000 0 3140787.370 16920769.211 18840721.638 10 0 59893 5400.00000 0 2543072.224 19036431.739 16797274.482 10 0 59893 6300.00000 0 2170238.226 20927834.119 14427825.735 10 0 59893 7200.00000 0 1994714.542 22538441.556 11778246.628 10 0 59893 8100.00000 0 1979074.233 23820211.655 8899886.237 10 0 59893 9000.00000 0 2077839.396 24735510.642 5848583.174 10 0 59893 9900.00000 0 2239634.165 25258613.958 2683585.966 10 0 59893 10800.00000 0 2409594.497 25376727.339 -533597.320 10 0 59893 11700.00000 0 2531932.473 25090484.397 -3740397.781 10 0 59893 12600.00000 0 2552545.740 24413898.658 -6874408.875 10 0 59893 13500.00000 0 2421560.439 23373771.092 -9874609.501 10 0 59893 14400.00000 0 2095698.361 22008577.379 -12682562.178 10 0 59893 15300.00000 0 1540366.427 20366881.344 -15243561.753 10 0 59893 16200.00000 0 731378.213 18505341.308 -17507711.166 10 0 59893 17100.00000 0 -343767.119 16486393.401 -19430902.377 10 0 59893 18000.00000 0 -1685104.163 14375709.752 -20975682.454 10 0 59893 18900.00000 0 -3279953.302 12239538.835 -22111987.507 10 0 59893 19800.00000 0 -5103217.156 10142040.081 -22817729.931 10 0 59893 20700.00000 0 -7118209.844 8142724.932 -23079227.507 10 0 59893 21600.00000 0 -9277984.959 6294111.591 -22891466.274 10 0 59893 22500.00000 0 -11527106.956 4639691.407 -22258192.455 10 0 59893 23400.00000 0 -13803791.913 3212291.379 -21191832.145 10 0 59893 24300.00000 0 -16042328.151 2032900.229 -19713240.895 10 0 59893 25200.00000 0 -18175675.460 1110005.731 -17851288.595 10 0 59893 26100.00000 0 -20138134.164 439469.308 -15642288.344 10 0 59893 27000.00000 0 -21867972.500 4941.153 -13129280.934 10 0 59893 27900.00000 0 -23309902.616 -221203.667 -10361189.380 10 0 59893 28800.00000 0 -24417301.915 -276449.555 -7391860.488 10 0 59893 29700.00000 0 -25154087.328 -206306.697 -4279012.598 10 0 59893 30600.00000 0 -25496164.814 -62138.374 -1083110.348 10 0 59893 31500.00000 0 -25432394.242 101257.764 2133811.179 10 0 59893 32400.00000 0 -24965030.290 228211.289 5309349.866 10 0 59893 33300.00000 0 -24109621.958 264774.684 8381944.063 10 0 59893 34200.00000 0 -22894375.875 161243.218 11292060.769 10 0 59893 35100.00000 0 -21359010.930 -125507.356 13983341.808 10 0 59893 36000.00000 0 -19553152.667 -629963.751 16403686.387 10 0 59893 36900.00000 0 -17534334.841 -1376285.181 18506249.811 10 0 59893 37800.00000 0 -15365691.387 -2377051.517 20250340.031 10 0 59893 38700.00000 0 -13113434.534 -3632502.260 21602195.778 10 0 59893 39600.00000 0 -10844223.277 -5130298.690 22535632.254 10 0 59893 40500.00000 0 -8622530.547 -6845819.959 23032542.879 10 0 59893 41400.00000 0 -6508117.247 -8742982.021 23083248.095 10 0 59893 42300.00000 0 -4553716.833 -10775546.696 22686684.869 10 0 59893 43200.00000 0 -2803025.340 -12888868.144 21850433.217 10 0 59893 44100.00000 0 -1289079.305 -15022005.897 20590578.806 10 0 59893 45000.00000 0 -33088.266 -17110118.275 18931413.494 10 0 59893 45900.00000 0 956230.148 -19087038.139 16904978.451 10 0 59893 46800.00000 0 1682785.086 -20887924.989 14550457.376 10 0 59893 47700.00000 0 2162711.685 -22451883.541 11913430.166 10 0 59893 48600.00000 0 2423451.337 -23724439.781 9045000.186 10 0 59893 49500.00000 0 2502351.528 -24659770.766 6000810.894 10 0 59893 50400.00000 0 2444844.009 -25222594.045 2839970.211 10 0 59893 51300.00000 0 2302278.261 -25389636.443 -376096.900 10 0 59893 52200.00000 0 2129502.106 -25150619.230 -3584845.328 10 0 59893 53100.00000 0 1982292.446 -24508716.858 -6723832.355 10 0 59893 54000.00000 0 1914745.891 -23480468.677 -9731941.332 10 0 59893 54900.00000 0 1976741.128 -22095146.223 -12550581.626 10 0 59893 55800.00000 0 2211582.006 -20393601.887 -15124840.281 10 0 59893 56700.00000 0 2653922.835 -18426646.942 -17404561.854 10 0 59893 57600.00000 0 3328065.375 -16253026.948 -19345334.437 10 0 59893 58500.00000 0 4246701.106 -13937079.770 -20909361.760 10 0 59893 59400.00000 0 5410153.343 -11546174.810 -22066203.957 10 0 59893 60300.00000 0 6806152.371 -9148041.136 -22793372.267 10 0 59893 61200.00000 0 8410153.987 -6808096.832 -23076766.113 10 0 59893 62100.00000 0 10186188.713 -4586891.381 -22910944.271 10 0 59893 63000.00000 0 12088206.440 -2537767.868 -22299225.251 10 0 59893 63900.00000 0 14061860.189 -704842.265 -21253615.403 10 0 59893 64800.00000 0 16046654.228 878616.715 -19794566.729 10 0 59893 65700.00000 0 17978366.435 2191340.792 -17950569.630 10 0 59893 66600.00000 0 19791643.199 3224701.713 -15757589.121 10 0 59893 67500.00000 0 21422658.081 3982812.493 -13258356.005 10 0 59893 68400.00000 0 22811722.795 4482088.246 -10501527.317 10 0 59893 69300.00000 0 23905741.167 4750287.237 -7540732.942 10 0 59893 70200.00000 0 24660403.487 4825074.662 -4433527.438 10 0 59893 71100.00000 0 25042029.722 4752171.627 -1240267.845 10 0 59893 72000.00000 0 25028984.872 4583169.002 1977060.201 10 0 59893 72900.00000 0 24612607.900 4373099.684 5156045.038 10 0 59893 73800.00000 0 23797616.073 4177872.694 8235056.777 10 0 59893 74700.00000 0 22601968.559 4051677.873 11154436.893 10 0 59893 75600.00000 0 21056195.673 4044470.910 13857646.912 10 0 59893 76500.00000 0 19202222.227 4199644.650 16292354.534 10 0 59893 77400.00000 0 17091734.394 4551984.554 18411436.845 10 0 59893 78300.00000 0 14784158.019 5125994.092 20173882.251 10 0 59893 79200.00000 0 12344332.082 5934660.322 21545574.740 10 0 59893 80100.00000 0 9839973.321 6978711.525 22499946.348 10 0 59893 81000.00000 0 7339036.232 8246398.482 23018486.184 10 0 59893 81900.00000 0 4907076.715 9713809.357 23091096.910 10 0 59893 82800.00000 0 2604727.410 11345706.213 22716292.146 10 0 59893 83700.00000 0 485388.053 13096849.757 21901231.036 10 0 59893 84600.00000 0 -1406774.575 14913758.788 20661588.863 10 0 59893 85500.00000 0 -3038435.005 16736832.683 19021265.445 10 0 59894 0.00000 0 -4388259.589 18502749.910 17011936.022 10 0 59894 900.00000 0 -5447552.381 20147044.814 14672450.840 10 0 59894 1800.00000 0 -6220367.884 21606753.633 12048096.459 10 0 59894 2700.00000 0 -6723088.426 22823022.785 9189728.153 10 0 59894 3600.00000 0 -6983481.913 23743567.771 6152791.697 10 0 59894 4500.00000 0 -7039280.261 24324879.991 2996251.765 10 0 59894 5400.00000 0 -6936338.273 24534087.643 -218552.506 10 0 59894 6300.00000 0 -6726450.884 24350391.166 -3429102.546 10 0 59894 7200.00000 0 -6464921.534 23766011.265 -6572922.224 10 0 59894 8100.00000 0 -6207985.336 22786608.078 -9588802.021 10 0 59894 9000.00000 0 -6010197.263 21431152.344 -12418000.711 10 0 59894 9900.00000 0 -5921897.260 19731252.800 -15005399.918 10 0 59894 10800.00000 0 -5986861.139 17729967.192 -17300587.990 10 0 59894 11700.00000 0 -6240238.191 15480146.291 -19258851.085 10 0 59894 12600.00000 0 -6706864.238 13042380.267 -20842051.292 10 0 59894 13500.00000 0 -7400022.720 10482633.563 -22019374.197 10 0 59894 14400.00000 0 -8320707.242 7869667.527 -22767931.048 10 0 59894 15300.00000 0 -9457417.517 5272358.932 -23073203.765 10 0 59894 16200.00000 0 -10786497.842 2757026.615 -22929324.376 10 0 59894 17100.00000 0 -12273004.234 384877.789 -22339183.792 10 0 59894 18000.00000 0 -13872063.781 -1790319.605 -21314368.305 10 0 59894 18900.00000 0 -15530669.038 -3724242.141 -19874925.608 10 0 59894 19800.00000 0 -17189831.890 -5383611.125 -18048965.410 10 0 59894 20700.00000 0 -18787006.140 -6747322.386 -15872103.027 10 0 59894 21600.00000 0 -20258676.880 -7807060.264 -13386757.317 10 0 59894 22500.00000 0 -21543007.694 -8567372.220 -10641317.113 10 0 59894 23400.00000 0 -22582434.432 -9045203.102 -7689192.954 10 0 59894 24300.00000 0 -23326096.664 -9268910.979 -4587773.037 10 0 59894 25200.00000 0 -23732004.895 -9276808.030 -1397304.129 10 0 59894 26100.00000 0 -23768852.867 -9115289.871 1820280.347 10 0 59894 27000.00000 0 -23417399.335 -8836633.730 5002562.008 10 0 59894 27900.00000 0 -22671361.887 -8496559.550 8087845.591 10 0 59894 28800.00000 0 -21537785.890 -8151657.620 11016349.915 10 0 59894 29700.00000 0 -20036873.592 -7856791.622 13731359.036 10 0 59894 30600.00000 0 -18201280.829 -7662586.551 16180311.828 10 0 59894 31500.00000 0 -16074910.845 -7613107.093 18315809.620 10 0 59894 32400.00000 0 -13711255.304 -7743823.758 20096523.417 10 0 59894 33300.00000 0 -11171351.010 -8079951.881 21487984.226 10 0 59894 34200.00000 0 -8521436.496 -8635232.976 22463242.228 10 0 59894 35100.00000 0 -5830404.615 -9411209.571 23003383.067 10 0 59894 36000.00000 0 -3167155.411 -10397024.256 23097891.989 10 0 59894 36900.00000 0 -597957.604 -11569752.111 22744859.195 10 0 59894 37800.00000 0 1816073.499 -12895253.751 21951022.477 10 0 59894 38700.00000 0 4021278.520 -14329514.741 20731645.889 10 0 59894 39600.00000 0 5973442.551 -15820417.007 19110236.046 10 0 59894 40500.00000 0 7639388.104 -17309869.791 17118100.400 10 0 59894 41400.00000 0 8998106.846 -18736212.526 14793754.727 10 0 59894 42300.00000 0 10041383.209 -20036790.159 12182189.900 10 0 59894 43200.00000 0 10773883.989 -21150593.762 9334010.843 10 0 59894 44100.00000 0 11212710.134 -22020855.871 6304463.159 10 0 59894 45000.00000 0 11386429.363 -22597491.184 3152365.617 10 0 59894 45900.00000 0 11333630.314 -22839279.166 -61031.251 10 0 59894 46800.00000 0 11101059.223 -22715695.410 -3273238.253 10 0 59894 47700.00000 0 10741418.145 -22208313.039 -6421748.660 10 0 59894 48600.00000 0 10310918.380 -21311713.396 -9445262.861 10 0 59894 49500.00000 0 9866693.513 -20033865.879 -12284891.713 10 0 59894 50400.00000 0 9464182.695 -18395959.409 -14885313.965 10 0 59894 51300.00000 0 9154596.195 -16431691.261 -17195864.114 10 0 59894 52200.00000 0 8982571.887 -14186042.210 -19171528.503 10 0 59894 53100.00000 0 8984123.063 -11713588.794 -20773829.396 10 0 59894 54000.00000 0 9184965.534 -9076423.184 -21971579.281 10 0 59894 54900.00000 0 9599295.627 -6341767.656 -22741490.455 10 0 59894 55800.00000 0 10229071.336 -3579383.602 -23068627.947 10 0 59894 56700.00000 0 11063827.367 -858883.372 -22946697.204 10 0 59894 57600.00000 0 12081032.014 1752942.866 -22378161.306 10 0 59894 58500.00000 0 13246970.752 4194673.887 -21374185.882 10 0 59894 59400.00000 0 14518119.072 6412572.108 -19954413.365 10 0 59894 60300.00000 0 15842946.438 8362570.575 -18146571.510 10 0 59894 61200.00000 0 17164074.966 10011850.458 -15985924.388 10 0 59894 62100.00000 0 18420701.569 11339944.805 -13514577.074 10 0 59894 63000.00000 0 19551181.280 12339324.323 -10780648.073 10 0 59894 63900.00000 0 20495662.701 13015442.705 -7837326.187 10 0 59894 64800.00000 0 21198664.552 13386241.893 -4741830.635 10 0 59894 65700.00000 0 21611484.856 13481140.289 -1554295.105 10 0 59894 66600.00000 0 21694341.572 13339548.463 1663402.097 10 0 59894 67500.00000 0 21418154.880 13008976.700 4848838.797 10 0 59894 68400.00000 0 20765896.616 12542815.518 7940257.218 10 0 59894 69300.00000 0 19733450.519 11997883.678 10877756.252 10 0 59894 70200.00000 0 18329947.590 11431847.605 13604445.007 10 0 59894 71100.00000 0 16577562.642 10900621.072 16067535.832 10 0 59894 72000.00000 0 14510780.562 10455854.408 18219356.356 10 0 59894 72900.00000 0 12175162.623 10142618.406 20018261.986 10 0 59894 73800.00000 0 9625663.541 9997379.693 21429432.267 10 0 59894 74700.00000 0 6924568.484 10046351.999 22425536.757 10 0 59894 75600.00000 0 4139134.392 10304292.101 22987258.531 10 0 59894 76500.00000 0 1339032.011 10773790.777 23103665.959 10 0 59894 77400.00000 0 -1406306.847 11445088.702 22772425.947 10 0 59894 78300.00000 0 -4030328.603 12296425.633 21999854.617 10 0 59894 79200.00000 0 -6471875.920 13294909.255 20800804.022 10 0 59894 80100.00000 0 -8677481.333 14397868.591 19198386.338 10 0 59894 81000.00000 0 -10603342.384 15554636.726 17223539.787 10 0 59894 81900.00000 0 -12216896.973 16708689.546 14914443.307 10 0 59894 82800.00000 0 -13497933.656 17800052.046 12315789.983 10 0 59894 83700.00000 0 -14439190.753 18767872.061 9477931.921 10 0 59894 84600.00000 0 -15046419.134 19553053.702 6455911.979 10 0 59894 85500.00000 0 -15337905.827 20100839.620 3308400.386 10 0 59895 0.00000 0 -15343478.324 20363232.679 96556.713 10 0 59895 900.00000 0 -15103031.357 20301153.954 -3117162.453 10 0 59895 1800.00000 0 -14664638.462 19886244.238 -6270222.119 10 0 59895 2700.00000 0 -14082328.454 19102231.758 -9301235.137 10 0 59895 3600.00000 0 -13413621.405 17945806.117 -12151166.908 10 0 59895 4500.00000 0 -12716929.283 16426960.013 -14764495.619 10 0 59895 5400.00000 0 -12048932.313 14568782.655 -17090304.033 10 0 59895 6300.00000 0 -11462043.170 12406712.176 -19083280.572 10 0 59895 7200.00000 0 -11002067.423 9987277.488 -20704609.303 10 0 59895 8100.00000 0 -10706160.100 7366381.661 -21922730.980 10 0 59895 9000.00000 0 -10601165.507 4607198.305 -22713960.013 10 0 59895 9900.00000 0 -10702410.904 1777768.903 -23062945.290 10 0 59895 10800.00000 0 -11013005.186 -1051598.635 -22962966.103 10 0 59895 11700.00000 0 -11523672.053 -3811021.641 -22416057.751 10 0 59895 12600.00000 0 -12213124.424 -6433712.385 -21432964.858 10 0 59895 13500.00000 0 -13048963.779 -8858514.875 -20032923.862 10 0 59895 14400.00000 0 -13989065.913 -11032203.622 -18243279.431 10 0 59895 15300.00000 0 -14983393.990 -12911449.369 -16098942.896 10 0 59895 16200.00000 0 -15976161.792 -14464371.065 -13641703.736 10 0 59895 17100.00000 0 -16908255.357 -15671610.887 -10919408.082 10 0 59895 18000.00000 0 -17719810.377 -16526889.138 -7985020.754 10 0 59895 18900.00000 0 -18352836.305 -17037017.912 -4895589.611 10 0 59895 19800.00000 0 -18753776.357 -17221375.084 -1711132.780 10 0 59895 20700.00000 0 -18875895.404 -17110862.767 1506529.116 10 0 59895 21600.00000 0 -18681395.293 -16746395.958 4694972.764 10 0 59895 22500.00000 0 -18143168.689 -16176986.571 7792380.582 10 0 59895 23400.00000 0 -17246117.971 -15457504.683 10738734.286 10 0 59895 24300.00000 0 -15987983.957 -14646212.054 13476970.790 10 0 59895 25200.00000 0 -14379649.815 -13802172.022 15954078.585 10 0 59895 26100.00000 0 -12444907.341 -12982644.607 18122114.117 10 0 59895 27000.00000 0 -10219695.037 -12240575.914 19939119.454 10 0 59895 27900.00000 0 -7750839.032 -11622286.547 21369924.617 10 0 59895 28800.00000 0 -5094348.356 -11165455.261 22386820.087 10 0 59895 29700.00000 0 -2313334.081 -10897481.656 22970087.492 10 0 59895 30600.00000 0 524362.869 -10834295.951 23108378.997 10 0 59895 31500.00000 0 3348738.503 -10979665.395 22798938.452 10 0 59895 32400.00000 0 6090282.573 -11325026.476 22047660.133 10 0 59895 33300.00000 0 8682617.014 -11849850.412 20868983.522 10 0 59895 34200.00000 0 11065008.046 -12522527.444 19285625.435 10 0 59895 35100.00000 0 13184648.984 -13301733.935 17328153.578 10 0 59895 36000.00000 0 14998619.754 -14138226.146 15034408.442 10 0 59895 36900.00000 0 16475442.036 -14976986.473 12448783.357 10 0 59895 37800.00000 0 17596165.349 -15759632.913 9621375.316 10 0 59895 38700.00000 0 18354938.627 -16426990.902 6607021.811 10 0 59895 39600.00000 0 18759042.974 -16921719.321 3464241.638 10 0 59895 40500.00000 0 18828383.943 -17190879.508 254099.720 10 0 59895 41400.00000 0 18594464.394 -17188337.954 -2960982.005 10 0 59895 42300.00000 0 18098881.058 -16876899.873 -6118444.080 10 0 59895 43200.00000 0 17391408.368 -16230081.813 -9156814.955 10 0 59895 44100.00000 0 16527750.856 -15233446.570 -12016917.541 10 0 59895 45000.00000 0 15567059.724 -13885442.075 -14643032.208 10 0 59895 45900.00000 0 14569319.441 -12197707.047 -16983992.451 10 0 59895 46800.00000 0 13592715.762 -10194828.821 -18994190.920 10 0 59895 47700.00000 0 12691097.425 -7913562.217 -20634475.286 10 0 59895 48600.00000 0 11911639.584 -5401541.205 -21872915.960 10 0 59895 49500.00000 0 11292808.308 -2715536.631 -22685430.442 10 0 59895 50400.00000 0 10862712.456 80667.427 -23056252.009 10 0 59895 51300.00000 0 10637912.513 2918690.127 -22978233.873 10 0 59895 52200.00000 0 10622736.351 5728162.445 -22452983.204 10 0 59895 53100.00000 0 10809130.247 8439419.014 -21490822.867 10 0 59895 54000.00000 0 11177050.651 10986161.292 -20110582.177 10 0 59895 54900.00000 0 11695379.259 13307981.404 -18339221.271 10 0 59895 55800.00000 0 12323321.781 15352641.987 -16211296.974 10 0 59895 56700.00000 0 13012230.389 17078017.949 -13768281.140 10 0 59895 57600.00000 0 13707771.985 18453620.292 -11057745.215 10 0 59895 58500.00000 0 14352349.952 19461639.815 -8132427.496 10 0 59895 59400.00000 0 14887676.481 20097468.855 -5049201.742 10 0 59895 60300.00000 0 15257386.411 20369681.138 -1867967.624 10 0 59895 61200.00000 0 15409581.989 20299472.533 1349514.889 10 0 59895 62100.00000 0 15299201.064 19919588.134 4540824.297 10 0 59895 63000.00000 0 14890108.946 19272782.389 7644086.089 10 0 59895 63900.00000 0 14156825.924 18409878.400 10599167.512 10 0 59895 64800.00000 0 13085817.943 17387508.916 13348835.774 10 0 59895 65700.00000 0 11676296.235 16265634.463 15839857.762 10 0 59895 66600.00000 0 9940492.325 15104942.949 18024020.718 10 0 59895 67500.00000 0 7903396.515 13964239.515 19859055.089 10 0 59895 68400.00000 0 5601970.083 12897935.450 21309442.809 10 0 59895 69300.00000 0 3083863.085 11953740.523 22347096.407 10 0 59895 70200.00000 0 405689.789 11170654.381 22951896.866 10 0 59895 71100.00000 0 -2369068.250 10577340.191 23112080.575 10 0 59895 72000.00000 0 -5172446.139 10190947.866 22824468.346 10 0 59895 72900.00000 0 -7934569.680 10016435.700 22094532.180 10 0 59895 73800.00000 0 -10586314.603 10046418.719 20936298.090 10 0 59895 74700.00000 0 -13061942.270 10261550.457 19372086.157 10 0 59895 75600.00000 0 -15301603.919 10631422.755 17432091.762 10 0 59895 76500.00000 0 -17253610.372 11115946.679 15153814.743 10 0 59895 77400.00000 0 -18876373.321 11667157.524 12581346.189 10 0 59895 78300.00000 0 -20139937.479 12231368.795 9764525.283 10 0 59895 79200.00000 0 -21027039.474 12751585.117 6757981.360 10 0 59895 80100.00000 0 -21533648.723 13170072.561 3620078.971 10 0 59895 81000.00000 0 -21668967.092 13430977.711 411785.915 10 0 59895 81900.00000 0 -21454886.855 13482884.105 -2804513.800 10 0 59895 82800.00000 0 -20924929.308 13281196.854 -5966238.572 10 0 59895 83700.00000 0 -20122708.629 12790253.028 -9011834.953 10 0 59895 84600.00000 0 -19099985.844 11985066.763 -11881985.758 10 0 59895 85500.00000 0 -17914395.427 10852633.372 -14520775.760 10 0 59896 0.00000 0 -16626941.242 9392735.563 -16876791.013 10 0 59896 900.00000 0 -15299367.633 7618215.062 -18904130.586 10 0 59896 1800.00000 0 -13991519.206 5554698.628 -20563306.982 10 0 59896 2700.00000 0 -12758799.173 3239786.034 -21822021.400 10 0 59896 3600.00000 0 -11649835.718 721734.978 -22655795.191 10 0 59896 4500.00000 0 -10704454.464 -1942303.372 -23048446.421 10 0 59896 5400.00000 0 -9952042.512 -4688424.659 -22992402.252 10 0 59896 6300.00000 0 -9410372.649 -7448398.306 -22488841.386 10 0 59896 7200.00000 0 -9084936.538 -10152279.875 -21547664.234 10 0 59896 8100.00000 0 -8968813.990 -12731100.027 -20187291.959 10 0 59896 9000.00000 0 -9043082.619 -15119518.147 -18434298.803 10 0 59896 9900.00000 0 -9277749.274 -17258330.281 -16322885.475 10 0 59896 10800.00000 0 -9633162.601 -19096727.407 -13894204.356 10 0 59896 11700.00000 0 -10061845.780 -20594210.651 -11195550.210 10 0 59896 12600.00000 0 -10510670.888 -21722084.543 -8279432.722 10 0 59896 13500.00000 0 -10923282.008 -22464467.322 -5202549.390 10 0 59896 14400.00000 0 -11242663.948 -22818777.620 -2024679.256 10 0 59896 15300.00000 0 -11413747.469 -22795678.854 1192480.574 10 0 59896 16200.00000 0 -11385940.697 -22418485.437 4386512.655 10 0 59896 17100.00000 0 -11115479.704 -21722057.370 7495487.832 10 0 59896 18000.00000 0 -10567499.174 -20751231.015 10459161.227 10 0 59896 18900.00000 0 -9717736.010 -19558853.040 13220132.707 10 0 59896 19800.00000 0 -8553794.264 -18203500.654 15724949.921 10 0 59896 20700.00000 0 -7075918.240 -16746984.048 17925133.190 10 0 59896 21600.00000 0 -5297241.073 -15251735.439 19778103.478 10 0 59896 22500.00000 0 -3243497.780 -13778193.478 21247996.542 10 0 59896 23400.00000 0 -952213.898 -12382291.549 22306348.597 10 0 59896 24300.00000 0 1528597.777 -11113153.893 22932641.273 10 0 59896 25200.00000 0 4142179.716 -10011094.668 23114696.114 10 0 59896 26100.00000 0 6825140.809 -9106002.546 22848911.445 10 0 59896 27000.00000 0 9509850.426 -8416177.468 22140337.158 10 0 59896 27900.00000 0 12127018.051 -7947667.649 21002585.591 10 0 59896 28800.00000 0 14608353.079 -7694134.426 19457579.518 10 0 59896 29700.00000 0 16889195.926 -7637250.730 17535141.057 10 0 59896 30600.00000 0 18911012.227 -7747616.943 15272428.096 10 0 59896 31500.00000 0 20623646.953 -7986156.325 12713227.795 10 0 59896 32400.00000 0 21987244.761 -8305931.986 9907119.463 10 0 59896 33300.00000 0 22973756.257 -8654309.456 6908521.837 10 0 59896 34200.00000 0 23567966.565 -8975373.930 3775642.422 10 0 59896 35100.00000 0 23768002.479 -9212500.084 569348.810 10 0 59896 36000.00000 0 23585296.108 -9310965.301 -2648016.212 10 0 59896 36900.00000 0 23044005.832 -9220494.856 -5813852.267 10 0 59896 37800.00000 0 22179918.460 -8897629.963 -8866527.353 10 0 59896 38700.00000 0 21038878.575 -8307816.805 -11746587.373 10 0 59896 39600.00000 0 19674811.350 -7427126.288 -14397924.459 10 0 59896 40500.00000 0 18147422.527 -6243529.838 -16768880.282 10 0 59896 41400.00000 0 16519673.078 -4757675.412 -18813261.802 10 0 59896 42300.00000 0 14855135.698 -2983129.291 -20491248.768 10 0 59896 43200.00000 0 13215345.152 -946071.911 -21770174.753 10 0 59896 44100.00000 0 11657254.600 1315540.716 -22625166.144 10 0 59896 45000.00000 0 10230905.306 3753315.672 -23039626.557 10 0 59896 45900.00000 0 8977407.740 6310206.417 -23005557.439 10 0 59896 46800.00000 0 7927318.598 8922666.488 -22523708.911 10 0 59896 47700.00000 0 7099481.277 11523083.722 -21603558.394 10 0 59896 48600.00000 0 6500377.462 14042393.435 -20263117.932 10 0 59896 49500.00000 0 6124015.699 16412761.650 -18528574.528 10 0 59896 50400.00000 0 5952360.089 18570226.418 -16433771.040 10 0 59896 51300.00000 0 5956279.346 20457187.373 -14019538.313 10 0 59896 52200.00000 0 6096974.486 22024640.077 -11332892.052 10 0 59896 53100.00000 0 6327823.356 23234062.508 -8426110.656 10 0 59896 54000.00000 0 6596562.696 24058875.873 -5355712.481 10 0 59896 54900.00000 0 6847714.359 24485419.866 -2181352.871 10 0 59896 55800.00000 0 7025152.311 24513402.926 1035337.075 10 0 59896 56700.00000 0 7074701.320 24155810.176 4231947.130 10 0 59896 57600.00000 0 6946657.219 23438274.378 7346496.565 10 0 59896 58500.00000 0 6598122.267 22397937.657 10318631.280 10 0 59896 59400.00000 0 5995057.125 21081852.796 13090786.491 10 0 59896 60300.00000 0 5113963.121 19544991.876 15609293.017 10 0 59896 61200.00000 0 3943124.080 17847945.989 17825406.403 10 0 59896 62100.00000 0 2483355.448 16054412.210 19696239.963 10 0 59896 63000.00000 0 748228.868 14228572.364 21185584.813 10 0 59896 63900.00000 0 -1236237.851 12432472.234 22264602.058 10 0 59896 64800.00000 0 -3432413.607 10723509.476 22912374.825 10 0 59896 65700.00000 0 -5792376.460 9152133.738 23116310.277 10 0 59896 66600.00000 0 -8259672.330 7759853.681 22872384.289 10 0 59896 67500.00000 0 -10771438.772 6577632.837 22185224.209 10 0 59896 68400.00000 0 -13260807.584 5624740.341 21068027.769 10 0 59896 69300.00000 0 -15659488.253 4908103.934 19542319.002 10 0 59896 70200.00000 0 -17900426.532 4422192.036 17637544.842 10 0 59896 71100.00000 0 -19920428.885 4149429.838 15390518.866 10 0 59896 72000.00000 0 -21662644.284 4061132.307 12844721.592 10 0 59896 72900.00000 0 -23078800.227 4118915.313 10049469.480 10 0 59896 73800.00000 0 -24131099.489 4276525.904 7058967.537 10 0 59896 74700.00000 0 -24793697.650 4482014.894 3931263.054 10 0 59896 75600.00000 0 -25053698.682 4680160.018 727120.281 10 0 59896 76500.00000 0 -24911625.808 4815036.894 -2491162.251 10 0 59896 77400.00000 0 -24381346.844 4832628.258 -5660968.282 10 0 59896 78300.00000 0 -23489456.289 4683359.854 -8720589.999 10 0 59896 79200.00000 0 -22274139.557 4324454.110 -11610438.951 10 0 59896 80100.00000 0 -20783566.867 3722000.193 -14274216.989 10 0 59896 81000.00000 0 -19073884.443 2852651.000 -16660023.284 10 0 59896 81900.00000 0 -17206887.864 1704873.405 -18721374.884 10 0 59896 82800.00000 0 -15247476.007 279697.228 -20418119.951 10 0 59896 83700.00000 0 -13260993.237 -1409070.274 -21717225.371 10 0 59896 84600.00000 0 -11310572.034 -3335174.808 -22593423.046 10 0 59896 85500.00000 0 -9454588.103 -5460777.421 -23029702.144 99